Mount Holly, NJ

4:04 AM EST on December 09, 2019 (GMT -0500)
South Jersey Regional

Weather History for KVAY - September, 2019

Change the Weather History Date:

Wednesday, September 4, 2019

  Actual Average (KPNE) Record (KPNE)
Temperature  
Mean Temperature 77 °F -  
Max Temperature 90 °F 79 °F 95 °F (2008)
Min Temperature 64 °F 61 °F 48 °F (1997)
Cooling Degree Days 12    
Growing Degree Days 27 (Base 50)    
Moisture  
Dew Point 69 °F    
Average Humidity 83    
Maximum Humidity 100    
Minimum Humidity 50    
Precipitation  
Precipitation 0.08 in - - ()
Sea Level Pressure  
Sea Level Pressure 29.95 in    
Wind  
Wind Speed 2 mph (SW)    
Max Wind Speed 10 mph    
Max Gust Speed 21 mph    
Visibility 8 miles    
Events Rain , Thunderstorm    
Averages and records for this station are not official NWS values.
T = Trace of Precipitation, MM = Missing Value Source: NWS Daily Summary

Daily Weather History Graph

Daily Weather History Graph

Search for Another Location

Airport or City:

Astronomy

Sep. 04, 2019 Rise Set
Actual Time 6:29 AM EDT 7:26 PM EDT
Civil Twilight 6:02 AM EDT 7:53 PM EDT
Nautical Twilight 5:29 AM EDT 8:26 PM EDT
Astronomical Twilight 4:55 AM EDT 9:00 PM EDT
Moon 12:28 PM EDT (9/4) 10:59 PM EDT (9/4)
Length of Visible Light 13h 51m
Length of Day
12h 56m
Waxing Crescent, 34% of the Moon is Illuminated
Sep 4
Waxing Crescent
Sep 5
First Quarter
Sep 14
Full
Sep 21
Last Quarter
Sep 28
New

Hourly Weather History & Observations

Time (EDT) Temp. Heat Index Dew Point Humidity Pressure Visibility Wind Dir Wind Speed Gust Speed Precip Events Conditions
12:54 AM 64.0 °F - 62.1 °F 93% 30.04 in 10.0 mi Calm Calm - N/A   Clear
1:17 AM 64.0 °F - 62.1 °F 93% 30.02 in 9.0 mi Calm Calm - N/A   Scattered Clouds
1:26 AM 64.0 °F - 63.0 °F 96% 30.03 in 10.0 mi Calm Calm - N/A   Mostly Cloudy
1:54 AM 66.0 °F - 64.0 °F 93% 30.02 in 10.0 mi Calm Calm - N/A   Overcast
2:15 AM 66.0 °F - 64.0 °F 93% 30.01 in 10.0 mi Calm Calm - N/A   Overcast
2:54 AM 66.9 °F - 64.9 °F 93% 29.99 in 9.0 mi Calm Calm - N/A   Overcast
3:42 AM 68.0 °F - 66.0 °F 93% 29.99 in 10.0 mi West 4.6 mph - N/A   Mostly Cloudy
3:54 AM 68.0 °F - 66.0 °F 93% 29.99 in 6.0 mi Calm Calm - N/A   Overcast
4:54 AM 68.0 °F - 66.9 °F 96% 29.99 in 4.0 mi Calm Calm - N/A   Overcast
5:54 AM 69.1 °F - 66.9 °F 93% 30.00 in 5.0 mi Calm Calm - N/A   Overcast
6:08 AM 69.1 °F - 66.9 °F 93% 30.00 in 5.0 mi Calm Calm - N/A   Overcast
6:21 AM 69.1 °F - 66.9 °F 93% 30.00 in 5.0 mi Calm Calm - N/A   Overcast
6:44 AM 70.0 °F - 68.0 °F 93% 30.00 in 5.0 mi Calm Calm - N/A   Overcast
6:54 AM 70.0 °F - 68.0 °F 93% 30.00 in 4.0 mi Variable 3.5 mph - N/A   Overcast
7:54 AM 71.1 °F - 69.1 °F 93% 29.99 in 7.0 mi Variable 4.6 mph - N/A   Mostly Cloudy
8:04 AM 72.0 °F - 69.1 °F 91% 29.99 in 8.0 mi Calm Calm - N/A   Scattered Clouds
8:54 AM 73.9 °F - 68.0 °F 82% 29.99 in 10.0 mi Variable 3.5 mph - N/A   Partly Cloudy
9:54 AM 78.1 °F - 69.1 °F 74% 29.97 in 10.0 mi SW 5.8 mph 16.1 mph N/A   Partly Cloudy
10:54 AM 80.1 °F 83.6 °F 71.1 °F 74% 29.96 in 10.0 mi SW 9.2 mph 17.3 mph N/A   Scattered Clouds
11:07 AM 82.0 °F 86.3 °F 71.1 °F 69% 29.95 in 10.0 mi SSW 8.1 mph - N/A   Mostly Cloudy
11:16 AM 82.0 °F 86.3 °F 71.1 °F 69% 29.95 in 10.0 mi SW 6.9 mph 18.4 mph N/A   Scattered Clouds
11:54 AM 84.0 °F 89.0 °F 71.1 °F 65% 29.94 in 10.0 mi Variable 6.9 mph - N/A   Scattered Clouds
12:54 PM 87.1 °F 93.6 °F 72.0 °F 61% 29.91 in 10.0 mi SW 10.4 mph 18.4 mph N/A   Clear
1:54 PM 88.0 °F 92.9 °F 70.0 °F 55% 29.88 in 10.0 mi SW 10.4 mph 20.7 mph N/A   Partly Cloudy
2:54 PM 88.0 °F 92.1 °F 69.1 °F 53% 29.87 in 10.0 mi WSW 10.4 mph - N/A   Mostly Cloudy
3:54 PM 88.0 °F 91.4 °F 68.0 °F 51% 29.86 in 10.0 mi SW 6.9 mph - N/A   Scattered Clouds
4:54 PM 90.0 °F 94.5 °F 69.1 °F 50% 29.86 in 10.0 mi WSW 6.9 mph - N/A   Partly Cloudy
5:54 PM 89.1 °F 93.7 °F 69.1 °F 52% 29.86 in 10.0 mi WSW 9.2 mph - N/A   Partly Cloudy
6:54 PM 86.0 °F 90.7 °F 70.0 °F 59% 29.88 in 10.0 mi WSW 4.6 mph - N/A   Mostly Cloudy
7:54 PM 75.0 °F - 70.0 °F 84% 29.89 in 10.0 mi SSE 4.6 mph - 0.03 in Thunderstorm Overcast
8:16 PM 75.0 °F - 71.1 °F 87% 29.90 in 1.8 mi Variable 5.8 mph 16.1 mph 0.01 in Rain , Thunderstorm Light Rain
8:25 PM 75.0 °F - 72.0 °F 90% 29.90 in 2.5 mi SW 3.5 mph - 0.02 in Rain Light Rain
8:32 PM 75.0 °F - 72.0 °F 90% 29.90 in 10.0 mi Calm Calm - 0.02 in Rain Light Rain
8:54 PM 75.0 °F - 72.0 °F 90% 29.93 in 10.0 mi WSW 4.6 mph - 0.04 in   Scattered Clouds
9:54 PM 73.9 °F - 72.0 °F 93% 29.94 in 10.0 mi Calm Calm - 0.01 in   Scattered Clouds
10:52 PM 71.6 °F - 71.6 °F 100% 29.95 in 1.5 mi Calm Calm - N/A   Partly Cloudy
10:54 PM 72.0 °F - 71.1 °F 97% 29.94 in 1.2 mi Calm Calm - N/A   Partly Cloudy
11:06 PM 72.0 °F - 71.1 °F 97% 29.95 in 3.0 mi Calm Calm - N/A   Scattered Clouds
11:48 PM 71.6 °F - 71.6 °F 100% 29.96 in 1.8 mi Calm Calm - N/A   Mostly Cloudy
11:54 PM 72.0 °F - 71.1 °F 97% 29.96 in 1.0 mi Calm Calm - N/A   Scattered Clouds